ONEWEB-0192, 48222

Orbit data source: Space-Track

ONEWEB-0192, 48222 is a payload satellite owned by One Web (NAA) (UK) in LEO that was launched on Sun, 25 Apr 2021 UTC via a SOYUZ-2-1B launch vehicle from the Vostochny Cosmodrome (VOSTO). Payload-class satellites include a variety of spacecraft equipped with specific instruments for various scientific and technological missions. These include communications satellites like Starlink; space stations such as the ISS; scientific satellites like the Hubble; Earth observation satellites from companies like Planet Labs, Umbra, and HawkEye 360; GPS; miniature CubeSats for education and research; and military/defense satellites.

Loading next visibility...
Identifier
48222, 2021-031N
Orbit
LEO
Country
Flag of UKUK
Related business
Manufacturer
One Web
Mission
Operational Commercial Communications
Bus & Motor
ARROW, Unknown motor
Mass
148 kg wet, ~140 kg dry
Launch date (UTC)
2021-04-25 (5 years ago)
Launch vehicle
SOYUZ-2-1B
Launch site
Vostochny Cosmodrome (VOSTO)
Object type
Payload
Rocket body
Debris
Shape & HBR
Trap Box + 2 Pan, 6.7 m
Radar Cross Section
3.464 m², Large (>1 m²)

Expand to show TLE details & history
Last TLE update: 1 day ago

TLE from 1 day ago
0 ONEWEB-0192
1 48222U 21031N   25306.48912532 -.00000156  00000-0 -45525-3 0  9993
2 48222  87.9003 334.8876 0001943  94.2940 265.8412 13.14504122218395
Epoch: 2025-11-02T11:44Z
TLE epoch observation values (Epoch: 2025-11-02T11:44:20.427Z)
Latitude
-0.00001°
Longitude
116.79837°
Altitude
1,208.786 km
Speed
7.25 km/s
True Right ascension
22h 19m 33s
True Declination
0° 00' 00"
Sunlit
Object was in daylight at epoch
Visualization orbit readout
Latitude
Unknown
Longitude
Unknown
Altitude
Unknown
Speed
Unknown
Apparent Right ascension
Unknown
Apparent Declination
Unknown
Sunlit
N/A
Visualization observer readout
Local Sidereal Time
09:58:44
Azimuth
Unknown
Elevation
Unknown
Doppler factor
Unknown
Orbital elements
Apogee altitude
1,204.372 km
Perigee altitude
1,201.426 km
Semi-major axis
7,581.036 km
Eccentricity
0.00019
Inclination
87.9003°
RAAN
334.8876°
Arg. of periapsis
94.294°
True anomaly
265.81899°
Mean anomaly
265.8412°
Eccentric anomaly
265.8301°
Mean motion
3.28814 °/min
Orbital period
109.48 mins
BSTAR
-0.00045525
Loading maneuver chart data...
Computing Atmospheric mass density...
Loading historical data...
Loading historical data...
Loading historical data...
Loading historical data...
Loading historical data...
Loading historical data...
Loading historical data...

Documentation

Showing up to 5 results
|